This is the latest recevied weather packets stored in our database for station/object KY4LEX. If no packets are shown the sender has not sent any weather packets the latest 1 day(s).
| Time | Temp. | Humidity | Pressure | Rain* | Wind** | Luminosity | Snow |
|---|---|---|---|---|---|---|---|
| 1778055456 | 15° C | 98% | 1011.6 hPa | 6.6 mm | - | 0 W/m² | - |
| 1778055153 | 15° C | 98% | 1011.4 hPa | 1.78 mm | - | 0 W/m² | - |
| 1778054547 | 15° C | 98% | 1011.5 hPa | 3.05 mm | - | 0 W/m² | - |
| 1778053942 | 15° C | 98% | 1011.7 hPa | 7.11 mm | - | 0 W/m² | - |
| 1778053034 | 15° C | 98% | 1011.4 hPa | 1.78 mm | - | 0 W/m² | - |
| 1778052731 | 15° C | 98% | 1011.6 hPa | 1.27 mm | - | 0 W/m² | - |
| 1778052428 | 15° C | 98% | 1011.4 hPa | 1.27 mm | - | 0 W/m² | - |
| 1778051823 | 15° C | 97% | 1011.4 hPa | 3.05 mm | - | 0 W/m² | - |
| 1778051521 | 14.44° C | 97% | 1011.1 hPa | 4.32 mm | - | 0 W/m² | - |
| 1778050309 | 14.44° C | 97% | 1010.4 hPa | 3.05 mm | - | 0 W/m² | - |
| 1778050006 | 14.44° C | 97% | 1010.5 hPa | 1.27 mm | - | 0 W/m² | - |
| 1778049096 | 14.44° C | 97% | 1011.1 hPa | 4.83 mm | - | 0 W/m² | - |
| 1778048795 | 14.44° C | 97% | 1010.9 hPa | 1.27 mm | - | 0 W/m² | - |
| 1778047280 | 14.44° C | 96% | 1011.3 hPa | 7.11 mm | - | 0 W/m² | - |
| 1778046674 | 14.44° C | 95% | 1011.7 hPa | 4.83 mm | - | 0 W/m² | - |
| 1778046371 | 14.44° C | 95% | 1011.9 hPa | 6.1 mm | - | 0 W/m² | - |
| 1778046067 | 14.44° C | 94% | 1011.8 hPa | 3.05 mm | - | 0 W/m² | - |
| 1778045765 | 15° C | 94% | 1011.7 hPa | 0 mm | - | 0 W/m² | - |
| 1778045161 | 14.44° C | 94% | 1011.7 hPa | 0 mm | - | 0 W/m² | - |
| 1778044859 | 15° C | 94% | 1011.7 hPa | 1.78 mm | - | 0 W/m² | - |
| 1778044555 | 15° C | 93% | 1011.7 hPa | 1.78 mm | - | 0 W/m² | - |
| 1778044252 | 15° C | 92% | 1012.1 hPa | 0 mm | - | 0 W/m² | - |
| 1778043950 | 14.44° C | 94% | 1011.9 hPa | 0 mm | - | 0 W/m² | - |
| 1778043040 | 14.44° C | 94% | 1012 hPa | 0 mm | - | 0 W/m² | - |
| 1778042738 | 14.44° C | 94% | 1011.8 hPa | 0 mm | - | 0 W/m² | - |
* Rain latest hour (hover to see other rain measurements)
** Current wind speed in m/s (hover to see current wind gust speed)